Time,TemperatureF,DewpointF,PressureIn,WindDirection,WindDirectionDegrees,WindSpeedMPH,WindSpeedGustMPH,Humidity,HourlyPrecipIn,Conditions,Clouds,dailyrainin,SoftwareType,DateUTC
2013-01-07 00:02:00,22.0,18.0,30.42,North,360,0.0,0.0,84,0.00,,,0.00,,2013-01-07 06:02:00,
2013-01-07 00:12:00,22.0,18.0,30.42,North,360,0.0,0.0,84,0.00,,,0.00,,2013-01-07 06:12:00,
2013-01-07 00:22:00,21.0,17.0,30.42,North,360,0.0,0.0,84,0.00,,,0.00,,2013-01-07 06:22:00,
2013-01-07 00:32:00,21.0,17.0,30.42,North,360,0.0,0.0,84,0.00,,,0.00,,2013-01-07 06:32:00,
2013-01-07 00:42:00,21.0,17.0,30.42,North,360,0.0,0.0,84,0.00,,,0.00,,2013-01-07 06:42:00,
2013-01-07 00:52:00,21.0,17.0,30.42,North,360,0.0,0.0,85,0.00,,,0.00,,2013-01-07 06:52:00,
2013-01-07 01:02:00,21.0,17.0,30.42,SSW,211,0.0,0.0,85,0.00,,,0.00,,2013-01-07 07:02:00,
2013-01-07 01:12:00,21.0,17.0,30.42,SSW,211,0.0,0.0,85,0.00,,,0.00,,2013-01-07 07:12:00,
2013-01-07 01:22:00,21.0,17.0,30.42,North,360,0.0,0.0,85,0.00,,,0.00,,2013-01-07 07:22:00,
2013-01-07 01:33:00,21.0,17.0,30.42,North,360,0.0,0.0,85,0.00,,,0.00,,2013-01-07 07:33:00,
2013-01-07 01:42:00,21.0,17.0,30.42,North,360,0.0,0.0,85,0.00,,,0.00,,2013-01-07 07:42:00,
2013-01-07 01:53:00,21.0,17.0,30.42,North,360,0.0,0.0,86,0.00,,,0.00,,2013-01-07 07:53:00,
2013-01-07 02:03:00,21.0,17.0,30.42,North,360,0.0,0.0,86,0.00,,,0.00,,2013-01-07 08:03:00,
2013-01-07 02:12:00,21.0,17.0,30.42,North,360,0.0,0.0,86,0.00,,,0.00,,2013-01-07 08:12:00,
2013-01-07 02:22:00,21.0,17.0,30.43,SE,145,0.0,0.0,86,0.00,,,0.00,,2013-01-07 08:22:00,
2013-01-07 02:32:00,21.0,17.0,30.43,North,360,0.0,0.0,86,0.00,,,0.00,,2013-01-07 08:32:00,
2013-01-07 02:42:00,21.0,17.0,30.43,North,360,0.0,0.0,86,0.00,,,0.00,,2013-01-07 08:42:00,
2013-01-07 02:53:00,21.0,17.0,30.44,North,360,0.0,0.0,86,0.00,,,0.00,,2013-01-07 08:53:00,
2013-01-07 03:02:00,21.0,17.0,30.44,SE,140,0.0,0.0,86,0.00,,,0.00,,2013-01-07 09:02:00,
2013-01-07 03:12:00,21.0,17.0,30.44,SE,140,0.0,0.0,86,0.00,,,0.00,,2013-01-07 09:12:00,
2013-01-07 03:22:00,20.0,16.0,30.43,North,360,0.0,0.0,86,0.00,,,0.00,,2013-01-07 09:22:00,
2013-01-07 03:32:00,20.0,16.0,30.43,North,360,0.0,0.0,86,0.00,,,0.00,,2013-01-07 09:32:00,
2013-01-07 03:42:00,20.0,16.0,30.43,North,360,0.0,0.0,86,0.00,,,0.00,,2013-01-07 09:42:00,
2013-01-07 03:52:00,20.0,16.0,30.43,ENE,74,0.0,0.0,86,0.00,,,0.00,,2013-01-07 09:52:00,
2013-01-07 04:02:00,23.0,20.0,30.43,ENE,57,0.0,0.0,87,0.00,,,0.00,,2013-01-07 10:02:00,
2013-01-07 04:12:00,23.0,20.0,30.43,ENE,57,0.0,0.0,87,0.00,,,0.00,,2013-01-07 10:12:00,
2013-01-07 04:22:00,25.0,22.0,30.43,NE,51,0.0,0.0,87,0.00,,,0.00,,2013-01-07 10:22:00,
2013-01-07 04:32:00,26.0,22.0,30.43,NE,48,0.0,0.0,86,0.00,,,0.00,,2013-01-07 10:32:00,
2013-01-07 04:42:00,26.0,22.0,30.43,NE,48,0.0,0.0,86,0.00,,,0.00,,2013-01-07 10:42:00,
2013-01-07 04:52:00,27.0,23.0,30.42,ESE,118,0.0,0.0,84,0.00,,,0.00,,2013-01-07 10:52:00,
2013-01-07 05:02:00,27.0,22.0,30.42,SE,125,0.0,0.0,82,0.00,,,0.00,,2013-01-07 11:02:00,
2013-01-07 05:12:00,27.0,22.0,30.42,SE,125,0.0,0.0,82,0.00,,,0.00,,2013-01-07 11:12:00,
2013-01-07 05:22:00,27.0,22.0,30.42,ESE,121,0.0,0.0,81,0.00,,,0.00,,2013-01-07 11:22:00,
2013-01-07 05:32:00,26.0,21.0,30.41,ESE,121,0.0,0.0,80,0.00,,,0.00,,2013-01-07 11:32:00,
2013-01-07 05:43:00,26.0,21.0,30.41,ESE,121,0.0,0.0,80,0.00,,,0.00,,2013-01-07 11:43:00,
2013-01-07 05:53:00,26.0,21.0,30.40,ESE,121,0.0,0.0,80,0.00,,,0.00,,2013-01-07 11:53:00,
2013-01-07 06:02:00,27.0,21.0,30.41,ESE,118,0.0,0.0,79,0.00,,,0.00,,2013-01-07 12:02:00,
2013-01-07 06:12:00,27.0,21.0,30.41,ESE,116,0.0,0.0,79,0.00,,,0.00,,2013-01-07 12:12:00,
2013-01-07 06:22:00,27.0,21.0,30.41,ESE,116,0.0,0.0,79,0.00,,,0.00,,2013-01-07 12:22:00,
2013-01-07 06:32:00,26.0,20.0,30.41,ESE,115,0.0,0.0,79,0.00,,,0.00,,2013-01-07 12:32:00,
2013-01-07 06:43:00,26.0,20.0,30.41,ESE,115,0.0,0.0,79,0.00,,,0.00,,2013-01-07 12:43:00,
2013-01-07 06:53:00,26.0,20.0,30.40,East,101,0.0,0.0,79,0.00,,,0.00,,2013-01-07 12:53:00,
2013-01-07 07:02:00,26.0,20.0,30.41,ESE,107,0.0,0.0,79,0.00,,,0.00,,2013-01-07 13:02:00,
2013-01-07 07:12:00,26.0,20.0,30.41,ESE,107,0.0,0.0,79,0.00,,,0.00,,2013-01-07 13:12:00,
2013-01-07 07:23:00,27.0,21.0,30.41,ESE,111,0.0,0.0,79,0.00,,,0.00,,2013-01-07 13:23:00,
2013-01-07 07:33:00,27.0,21.0,30.41,ESE,111,0.0,0.0,79,0.00,,,0.00,,2013-01-07 13:33:00,
2013-01-07 07:42:00,27.0,21.0,30.41,ESE,111,0.0,0.0,79,0.00,,,0.00,,2013-01-07 13:42:00,
2013-01-07 07:53:00,27.0,21.0,30.42,SE,124,0.0,0.0,79,0.00,,,0.00,,2013-01-07 13:53:00,
2013-01-07 08:03:00,27.0,21.0,30.42,ESE,111,0.0,0.0,79,0.00,,,0.00,,2013-01-07 14:03:00,
2013-01-07 08:12:00,27.0,21.0,30.42,ESE,111,0.0,0.0,79,0.00,,,0.00,,2013-01-07 14:12:00,
2013-01-07 08:22:00,27.0,21.0,30.42,ESE,122,0.0,0.0,79,0.00,,,0.00,,2013-01-07 14:22:00,
2013-01-07 08:33:00,27.0,21.0,30.42,ESE,118,0.0,0.0,79,0.00,,,0.00,,2013-01-07 14:33:00,
2013-01-07 08:42:00,27.0,21.0,30.42,ESE,118,0.0,0.0,79,0.00,,,0.00,,2013-01-07 14:42:00,
2013-01-07 08:53:00,28.0,22.0,30.42,SE,132,0.0,0.0,79,0.00,,,0.00,,2013-01-07 14:53:00,
2013-01-07 09:03:00,29.0,23.0,30.42,ESE,111,0.0,0.0,78,0.00,,,0.00,,2013-01-07 15:03:00,
2013-01-07 09:12:00,29.0,23.0,30.42,ESE,111,0.0,0.0,78,0.00,,,0.00,,2013-01-07 15:12:00,
2013-01-07 09:22:00,30.0,24.0,30.42,ESE,109,0.0,0.0,77,0.00,,,0.00,,2013-01-07 15:22:00,
2013-01-07 09:33:00,32.0,25.0,30.42,East,101,0.0,0.0,74,0.00,,,0.00,,2013-01-07 15:33:00,
2013-01-07 09:42:00,32.0,25.0,30.42,East,101,0.0,0.0,74,0.00,,,0.00,,2013-01-07 15:42:00,
2013-01-07 09:53:00,34.0,26.0,30.42,East,101,0.0,0.0,71,0.00,,,0.00,,2013-01-07 15:53:00,
2013-01-07 10:02:00,34.0,25.0,30.42,ESE,109,0.0,0.0,69,0.00,,,0.00,,2013-01-07 16:02:00,
2013-01-07 10:12:00,34.0,25.0,30.42,ESE,109,0.0,0.0,69,0.00,,,0.00,,2013-01-07 16:12:00,
2013-01-07 10:22:00,36.0,26.0,30.41,ESE,123,0.0,0.0,68,0.00,,,0.00,,2013-01-07 16:22:00,
2013-01-07 10:33:00,36.0,26.0,30.41,East,98,0.0,0.0,66,0.00,,,0.00,,2013-01-07 16:33:00,
2013-01-07 10:43:00,36.0,26.0,30.41,East,98,0.0,0.0,66,0.00,,,0.00,,2013-01-07 16:43:00,
2013-01-07 10:53:00,37.0,26.0,30.41,SE,132,0.0,0.0,65,0.00,,,0.00,,2013-01-07 16:53:00,
2013-01-07 11:02:00,37.0,26.0,30.40,ESE,111,0.0,0.0,63,0.00,,,0.00,,2013-01-07 17:02:00,
2013-01-07 11:12:00,37.0,26.0,30.40,ESE,111,0.0,0.0,63,0.00,,,0.00,,2013-01-07 17:12:00,
2013-01-07 11:23:00,38.0,27.0,30.40,ESE,113,0.0,0.0,63,0.00,,,0.00,,2013-01-07 17:23:00,
2013-01-07 11:33:00,39.0,27.0,30.39,SE,130,0.0,0.0,62,0.00,,,0.00,,2013-01-07 17:33:00,
2013-01-07 11:42:00,39.0,27.0,30.39,SE,130,0.0,0.0,62,0.00,,,0.00,,2013-01-07 17:42:00,
2013-01-07 11:53:00,39.0,27.0,30.37,SE,134,0.0,0.0,61,0.00,,,0.00,,2013-01-07 17:53:00,
2013-01-07 12:03:00,40.0,27.0,30.35,ESE,119,0.0,0.0,60,0.00,,,0.00,,2013-01-07 18:03:00,
2013-01-07 12:12:00,40.0,27.0,30.35,ESE,119,0.0,0.0,60,0.00,,,0.00,,2013-01-07 18:12:00,
2013-01-07 12:23:00,41.0,28.0,30.35,ESE,114,0.0,0.0,59,0.00,,,0.00,,2013-01-07 18:23:00,
2013-01-07 12:32:00,41.0,28.0,30.33,ESE,121,0.0,0.0,59,0.00,,,0.00,,2013-01-07 18:32:00,
2013-01-07 12:42:00,41.0,28.0,30.33,ESE,121,0.0,0.0,59,0.00,,,0.00,,2013-01-07 18:42:00,
2013-01-07 12:53:00,42.0,29.0,30.31,SE,128,0.0,0.0,59,0.00,,,0.00,,2013-01-07 18:53:00,
2013-01-07 13:03:00,42.0,28.0,30.30,East,90,0.0,0.0,58,0.00,,,0.00,,2013-01-07 19:03:00,
2013-01-07 13:12:00,42.0,28.0,30.30,East,90,0.0,0.0,58,0.00,,,0.00,,2013-01-07 19:12:00,
2013-01-07 13:22:00,43.0,29.0,30.29,ESE,107,0.0,0.0,57,0.00,,,0.00,,2013-01-07 19:22:00,
2013-01-07 13:33:00,43.0,29.0,30.28,East,97,0.0,0.0,58,0.00,,,0.00,,2013-01-07 19:33:00,
2013-01-07 13:43:00,43.0,29.0,30.28,East,97,0.0,0.0,58,0.00,,,0.00,,2013-01-07 19:43:00,
2013-01-07 13:53:00,43.0,29.0,30.28,ESE,103,0.0,0.0,58,0.00,,,0.00,,2013-01-07 19:53:00,
2013-01-07 14:03:00,44.0,30.0,30.28,East,92,0.0,0.0,57,0.00,,,0.00,,2013-01-07 20:03:00,
2013-01-07 14:12:00,44.0,30.0,30.28,East,92,0.0,0.0,57,0.00,,,0.00,,2013-01-07 20:12:00,
2013-01-07 14:23:00,44.0,29.0,30.27,SE,132,0.0,0.0,55,0.00,,,0.00,,2013-01-07 20:23:00,
2013-01-07 14:33:00,45.0,30.0,30.28,ESE,109,0.0,0.0,55,0.00,,,0.00,,2013-01-07 20:33:00,
2013-01-07 14:42:00,45.0,30.0,30.28,ESE,109,0.0,0.0,55,0.00,,,0.00,,2013-01-07 20:42:00,
2013-01-07 14:53:00,45.0,29.0,30.28,ESE,122,0.0,0.0,54,0.00,,,0.00,,2013-01-07 20:53:00,
2013-01-07 15:03:00,46.0,30.0,30.27,East,86,0.0,0.0,53,0.00,,,0.00,,2013-01-07 21:03:00,
2013-01-07 15:12:00,46.0,30.0,30.27,East,86,0.0,0.0,53,0.00,,,0.00,,2013-01-07 21:12:00,
2013-01-07 15:23:00,46.0,29.0,30.27,East,98,0.0,0.0,52,0.00,,,0.00,,2013-01-07 21:23:00,
2013-01-07 15:33:00,46.0,29.0,30.25,ESE,106,0.0,0.0,52,0.00,,,0.00,,2013-01-07 21:33:00,
2013-01-07 15:42:00,46.0,29.0,30.25,ESE,106,0.0,0.0,52,0.00,,,0.00,,2013-01-07 21:42:00,
2013-01-07 15:53:00,45.0,29.0,30.25,East,101,0.0,0.0,53,0.00,,,0.00,,2013-01-07 21:53:00,
2013-01-07 16:02:00,45.0,28.0,30.26,ESE,103,0.0,0.0,52,0.00,,,0.00,,2013-01-07 22:02:00,
2013-01-07 16:12:00,45.0,28.0,30.26,ESE,103,0.0,0.0,52,0.00,,,0.00,,2013-01-07 22:12:00,
2013-01-07 16:22:00,44.0,28.0,30.26,ESE,109,0.0,0.0,54,0.00,,,0.00,,2013-01-07 22:22:00,
2013-01-07 16:33:00,43.0,28.0,30.25,ESE,102,0.0,0.0,55,0.00,,,0.00,,2013-01-07 22:33:00,
2013-01-07 16:42:00,43.0,28.0,30.25,ESE,102,0.0,0.0,55,0.00,,,0.00,,2013-01-07 22:42:00,
2013-01-07 16:53:00,43.0,28.0,30.25,East,96,0.0,0.0,55,0.00,,,0.00,,2013-01-07 22:53:00,
2013-01-07 17:02:00,42.0,29.0,30.24,East,83,0.0,0.0,60,0.00,,,0.00,,2013-01-07 23:02:00,
2013-01-07 17:12:00,42.0,29.0,30.24,East,83,0.0,0.0,60,0.00,,,0.00,,2013-01-07 23:12:00,
2013-01-07 17:22:00,41.0,30.0,30.23,East,93,0.0,0.0,64,0.00,,,0.00,,2013-01-07 23:22:00,
2013-01-07 17:32:00,40.0,30.0,30.24,East,93,0.0,0.0,66,0.00,,,0.00,,2013-01-07 23:32:00,
2013-01-07 17:42:00,40.0,30.0,30.24,East,93,0.0,0.0,66,0.00,,,0.00,,2013-01-07 23:42:00,
2013-01-07 17:53:00,39.0,29.0,30.24,ESE,103,0.0,0.0,67,0.00,,,0.00,,2013-01-07 23:53:00,
2013-01-07 18:02:00,38.0,28.0,30.25,East,101,0.0,0.0,68,0.00,,,0.00,,2013-01-08 00:02:00,
2013-01-07 18:12:00,38.0,28.0,30.25,East,101,0.0,0.0,68,0.00,,,0.00,,2013-01-08 00:12:00,
2013-01-07 18:22:00,38.0,29.0,30.25,ESE,109,0.0,0.0,70,0.00,,,0.00,,2013-01-08 00:22:00,
2013-01-07 18:33:00,38.0,29.0,30.24,ESE,114,0.0,0.0,70,0.00,,,0.00,,2013-01-08 00:33:00,
2013-01-07 18:42:00,38.0,29.0,30.24,ESE,114,0.0,0.0,70,0.00,,,0.00,,2013-01-08 00:42:00,
2013-01-07 18:53:00,38.0,29.0,30.22,ESE,103,0.0,0.0,71,0.00,,,0.00,,2013-01-08 00:53:00,
2013-01-07 19:02:00,37.0,28.0,30.23,ESE,105,0.0,0.0,71,0.00,,,0.00,,2013-01-08 01:02:00,
2013-01-07 19:12:00,37.0,28.0,30.23,ESE,105,0.0,0.0,71,0.00,,,0.00,,2013-01-08 01:12:00,
2013-01-07 19:22:00,37.0,28.0,30.23,ESE,110,0.0,0.0,71,0.00,,,0.00,,2013-01-08 01:22:00,
2013-01-07 19:32:00,37.0,28.0,30.22,ESE,109,0.0,0.0,71,0.00,,,0.00,,2013-01-08 01:32:00,
2013-01-07 19:42:00,37.0,28.0,30.22,ESE,109,0.0,0.0,71,0.00,,,0.00,,2013-01-08 01:42:00,
2013-01-07 19:52:00,37.0,28.0,30.22,ESE,102,0.0,0.0,70,0.00,,,0.00,,2013-01-08 01:52:00,
2013-01-07 20:02:00,37.0,27.0,30.22,ESE,115,0.0,0.0,68,0.00,,,0.00,,2013-01-08 02:02:00,
2013-01-07 20:12:00,37.0,27.0,30.22,ESE,115,0.0,0.0,68,0.00,,,0.00,,2013-01-08 02:12:00,
2013-01-07 20:22:00,37.0,27.0,30.22,SE,130,0.0,0.0,67,0.00,,,0.00,,2013-01-08 02:22:00,
2013-01-07 20:33:00,37.0,27.0,30.21,ESE,103,0.0,0.0,67,0.00,,,0.00,,2013-01-08 02:33:00,
2013-01-07 20:42:00,37.0,27.0,30.21,ESE,103,0.0,0.0,67,0.00,,,0.00,,2013-01-08 02:42:00,
2013-01-07 20:53:00,37.0,27.0,30.22,ESE,104,0.0,0.0,67,0.00,,,0.00,,2013-01-08 02:53:00,
2013-01-07 21:03:00,36.0,26.0,30.21,ESE,103,0.0,0.0,68,0.00,,,0.00,,2013-01-08 03:03:00,
2013-01-07 21:12:00,36.0,26.0,30.21,ESE,103,0.0,0.0,68,0.00,,,0.00,,2013-01-08 03:12:00,
2013-01-07 21:22:00,35.0,26.0,30.22,ESE,102,0.0,0.0,68,0.00,,,0.00,,2013-01-08 03:22:00,
2013-01-07 21:32:00,34.0,25.0,30.22,ESE,102,0.0,0.0,70,0.00,,,0.00,,2013-01-08 03:32:00,
2013-01-07 21:42:00,34.0,25.0,30.22,ESE,102,0.0,0.0,70,0.00,,,0.00,,2013-01-08 03:42:00,
2013-01-07 21:53:00,34.0,26.0,30.22,East,98,0.0,0.0,71,0.00,,,0.00,,2013-01-08 03:53:00,
2013-01-07 22:02:00,33.0,24.0,30.23,East,98,0.0,0.0,70,0.00,,,0.00,,2013-01-08 04:02:00,
2013-01-07 22:12:00,33.0,24.0,30.23,East,98,0.0,0.0,70,0.00,,,0.00,,2013-01-08 04:12:00,
2013-01-07 22:22:00,32.0,24.0,30.22,East,99,0.0,0.0,72,0.00,,,0.00,,2013-01-08 04:22:00,
2013-01-07 22:32:00,34.0,26.0,30.22,East,99,0.0,0.0,72,0.00,,,0.00,,2013-01-08 04:32:00,
2013-01-07 22:42:00,34.0,26.0,30.22,East,99,0.0,0.0,72,0.00,,,0.00,,2013-01-08 04:42:00,
2013-01-07 22:52:00,34.0,25.0,30.21,ESE,109,0.0,0.0,70,0.00,,,0.00,,2013-01-08 04:52:00,
2013-01-07 23:03:00,34.0,25.0,30.20,ESE,112,0.0,0.0,70,0.00,,,0.00,,2013-01-08 05:03:00,
2013-01-07 23:12:00,34.0,25.0,30.20,ESE,112,0.0,0.0,70,0.00,,,0.00,,2013-01-08 05:12:00,
2013-01-07 23:22:00,35.0,26.0,30.20,ESE,113,0.0,0.0,68,0.00,,,0.00,,2013-01-08 05:22:00,
2013-01-07 23:33:00,35.0,26.0,30.19,ESE,117,0.0,0.0,68,0.00,,,0.00,,2013-01-08 05:33:00,
2013-01-07 23:42:00,35.0,26.0,30.19,ESE,117,0.0,0.0,68,0.00,,,0.00,,2013-01-08 05:42:00,
2013-01-07 23:53:00,35.0,26.0,30.19,SE,124,0.0,0.0,68,0.00,,,0.00,,2013-01-08 05:53:00,